Location: Peebles
(55.6412°N, 3.1714°W)
Time: 22:05:02
(UTC+01:00)

CENTAUR R/B - Pass Details

Date: 28 January 2022
Orbit: 716 x 1471 km, 63.4° (Epoch: 08 May)

Event Time Altitude Azimuth Distance (km) Brightness Sun altitude
Rises 17:15:46 0° 251° (WSW) 3,554 8.2 -5.4°
Reaches altitude 10° 17:18:09 10° 255° (WSW) 2,708 6.6 -5.7°
Maximum altitude 17:24:31 61° 336° (NNW) 1,245 3.1 -6.6°
Drops below altitude 10° 17:32:17 10° 56° (NE) 3,269 4.6 -7.6°
Enters shadow 17:32:50 - 57° (ENE) 3,459 4.7 -7.7°
